This demonstration page uses our WeatherBlox Daily Observations layout. Learn more.

Left ArrowRight Arrow

39.12711, -84.51439

Hourly Observations for September 10, 2016

Temp ( °F °C ) Dew Point ( °F °C ) Humidity (%) Winds ( mph kmh ) Pressure ( in mb ) Visibility ( mi km ) Precip ( " mm )
12:53 am 00:53 Clear 74 23.3 73 22.8 97 97 SSW 7 11 29.93 1014 10 16 0.00 0.00
1:53 am 01:53 Partly Cloudy 75 23.9 73 22.8 94 94 S 9 15 29.92 1013 10 16 0.00 0.00
2:53 am 02:53 Partly Cloudy 75 23.9 73 22.8 94 94 S 8 13 29.91 1013 10 16 0.00 0.00
3:53 am 03:53 Mostly Clear 74 23.3 71 21.7 91 91 SSW 6 9 29.90 1012 10 16 0.00 0.00
4:53 am 04:53 Clear 72 22.2 70 21.1 94 94 SSW 6 9 29.90 1013 10 16 0.00 0.00
5:53 am 05:53 Clear 72 22.2 69 20.6 91 91 S 9 15 29.91 1013 10 16 0.00 0.00
6:53 am 06:53 Clear 72 22.2 68 20 87 87 SSW 7 11 29.91 1013 10 16 0.00 0.00
7:53 am 07:53 Mostly Sunny 72 22.2 69 20.6 91 91 SSW 7 11 29.93 1014 10 16 0.00 0.00
8:53 am 08:53 Mostly Sunny 75 23.9 69 20.6 82 82 S 9 15 29.94 1014 10 16 0.00 0.00
9:53 am 09:53 Mostly Sunny 78 25.6 72 22.2 82 82 S 13 20 29.94 1014 10 16 0.00 0.00
10:53 am 10:53 Sunny 82 27.8 74 23.3 77 77 SSW 12 19 29.92 1013 10 16 0.00 0.00
11:53 am 11:53 Partly Cloudy 85 29.4 74 23.3 70 70 SSW 14 22 29.91 1013 10 16 0.00 0.00
12:53 pm 12:53 Partly Cloudy 85 29.4 73 22.8 68 68 SSW 14 22 29.88 1012 10 16 0.00 0.00
1:53 pm 13:53 Mostly Sunny 85 29.4 73 22.8 68 68 SSW 16 26 29.88 1012 10 16 0.00 0.00
2:53 pm 14:53 Mostly Cloudy 87 30.6 73 22.8 63 63 SSW 20 31 29.83 1010 10 16 0.00 0.00
3:53 pm 15:53 Mostly Sunny 87 30.6 72 22.2 61 61 SSW 21 33 29.79 1009 10 16 0.00 0.00
4:10 pm 16:10 Partly Cloudy with Thunderstorms 86 30 72 22 62 62 SSW 18 30 29.77 1008 10 16 0.00 0.00
4:23 pm 16:23 Windy with Storms Likely 83 28.3 71 21.7 67 67 W 36 57 29.88 1012 10 16 0.00 0.03
4:30 pm 16:30 Mostly Cloudy with Strong Thunderstorms 72 22 70 21 94 94 WNW 25 41 29.88 1012 2 3 0.00 0.00
4:53 pm 16:53 Cloudy with Thunderstorms 72 22.2 70 21.1 94 94 W 10 17 29.89 1012 4 6 0.40 10.16
5:26 pm 17:26 Cloudy with Mist and Fog 72 22 72 22 100 100 Calm 29.91 1013 4 6 0.00 0.00
5:53 pm 17:53 Cloudy with Nearby Thunderstorms 71 21.7 71 21.7 100 100 S 6 9 29.94 1014 4 6 0.20 5.08
6:00 pm 18:00 Cloudy with Thunderstorms 71 21.7 71 21.7 100 100 SSW 6 9 29.94 1014 3 5 0.02 0.51
6:25 pm 18:25 Cloudy with Thunderstorms 71 21.7 71 21.7 100 100 S 6 9 29.94 1014 3 5 0.11 2.79
6:53 pm 18:53 Cloudy with Rain 71 21.7 71 21.7 100 100 S 7 11 29.96 1015 4 6 0.17 4.32
7:50 pm 19:50 Mostly Cloudy 72 22 72 22 100 100 S 7 11 29.94 1014 10 16 0.02 0.51
7:53 pm 19:53 Mostly Cloudy 71 21.7 71 21.7 100 100 S 6 9 29.96 1015 10 16 0.02 0.51
8:17 pm 20:17 Partly Cloudy 70 21 70 21 100 100 S 5 7 29.94 1014 8 13 0.00 0.00
8:53 pm 20:53 Partly Cloudy 70 21.1 70 21.1 100 100 S 5 7 29.98 1015 8 13 0.00 0.00
9:53 pm 21:53 Mostly Cloudy 71 21.7 70 21.1 96 96 WSW 6 9 30.01 1016 8 13 0.00 0.00
10:53 pm 22:53 Partly Cloudy 71 21.7 65 18.3 81 81 WNW 9 15 30.04 1017 10 16 0.00 0.00
11:53 pm 23:53 Clear 68 20 61 16.1 78 78 NNW 3 6 30.06 1018 10 16 0.00 0.00

Powered by AerisWeather